[[{"header":{"parameterUnit":"m.s-1","parameterCategory":1,"la1":30.2991,"la2":30.254,"lo1":-89.0895,"lo2":-89.0444,"dy":0.0017,"dx":0.0017,"nx":28,"ny":28,"refTime":"2025-04-06T09:00:00:Z","depth":0,"parameterNumber":2,"parameterNumberName":"U-component_of_WINDS"},"data":[0,0,0,0,0,0,0,0,0,0,0,0,0,0,0,0,0,0,0,0,0,0,0,0,0,0,0,0,0,0,0,0,0,0,0,0,0,0,0,0,0,0,0,0,0,0,0,0,0,0,0,0,0,0,0,0,0,0,3.73,3.7302,0,3.7511,3.7514,3.7516,3.7534,3.7532,3.7529,3.7527,3.775,3.7758,3.7766,0,0,0,0,0,0,0,0,0,0,0,0,0,3.6921,3.6928,3.73,3.7302,3.7305,3.7511,3.7514,3.7517,3.7534,3.7532,3.7529,3.7526,3.7748,3.7757,3.7767,0,0,0,0,0,0,0,0,0,0,0,0,0,3.7105,3.693,3.7299,3.7338,3.7344,3.751,3.7514,3.7518,3.7535,3.7531,3.7528,3.7525,3.7745,3.7756,3.7768,3.7912,0,0,3.7805,3.7811,0,0,0,0,0,0,0,0,3.7094,3.7118,3.733,3.7336,3.7343,3.7493,3.7462,3.765,3.7536,3.7463,3.7527,3.7523,3.7668,3.7686,3.7734,3.7923,3.7932,3.7806,3.7814,3.7819,3.7822,0,0,0,0,0,0,0,3.7081,3.711,3.7384,3.7333,3.7341,3.7349,3.7371,3.7498,3.7582,3.7469,3.7471,3.7495,3.7671,3.7722,3.7739,3.7935,3.7806,3.7817,3.7824,3.7829,3.826,3.8264,0,0,0,0,0,0,3.706,3.7099,3.7377,3.739,3.7207,3.7358,3.7383,3.7448,3.7581,3.7598,3.7498,3.7495,3.7703,3.7725,3.7747,3.7927,3.7819,3.783,3.7837,3.8256,3.8261,3.8265,0,0,0,0,0,0,3.7052,3.7085,3.7369,3.7245,3.7282,3.7369,3.7441,3.7454,3.7505,3.7603,3.7619,3.7534,3.7701,3.773,3.7872,3.7935,3.7836,3.7847,3.8251,3.8257,3.8263,3.8287,0,0,0,0,0,0,3.7041,3.7082,3.7134,3.7246,3.7288,3.7487,3.7445,3.7461,3.7525,3.7524,3.7641,3.7657,3.77,3.7854,3.7884,3.795,3.7856,3.8245,3.8253,3.8261,3.8281,3.8293,3.8304,0,0,0,0,0,3.7027,3.7133,3.7137,3.717,3.7356,3.749,3.7515,3.7561,3.753,3.7586,3.765,3.7653,3.7923,3.7868,3.7902,3.7973,3.8242,3.8251,3.826,3.8276,3.8291,3.8304,0,0,0,0,0,0,3.7027,3.7148,3.7154,3.7298,3.7384,3.7493,3.7564,3.7574,3.7672,3.7667,3.7722,3.7749,3.789,3.7946,3.7882,3.8122,3.808,3.8096,3.808,3.8095,3.8106,3.809,3.7866,0,0,0,0,0,3.7044,3.714,3.7242,3.736,3.7403,3.7476,3.7536,3.7565,3.7657,3.7693,3.7767,3.7858,3.7965,3.8033,3.8135,3.829,3.8318,3.8356,3.8367,3.8376,3.839,3.8481,3.85,3.8296,3.8296,3.8296,0,0,3.708,3.7158,3.7215,3.7362,3.7431,3.7534,3.7506,3.7614,3.7692,3.7711,3.7849,3.7907,3.8013,3.8163,3.8233,3.8214,3.8454,3.8388,3.8395,3.8404,3.8493,3.8512,3.8529,3.8302,3.8301,3.83,0,0,3.7197,3.7264,3.7371,3.7443,3.7548,3.7597,3.7623,3.7733,3.7771,3.7911,3.7929,3.8024,3.8204,3.828,3.8342,3.8495,3.8503,3.8527,3.8587,3.8674,3.8691,3.8705,3.8763,3.8782,3.854,3.854,3.854,0,3.7228,3.738,3.7426,3.7535,3.7601,3.7622,3.7734,3.7801,3.7936,3.7983,3.796,3.819,3.8262,3.8433,3.847,3.8519,3.8554,3.8513,3.8684,3.8699,3.8714,3.8769,3.879,3.8543,3.8542,3.8542,3.8542,0,3.7415,3.7521,3.7596,3.7724,3.7799,3.7909,3.7975,3.8046,3.807,3.8123,3.8268,3.8357,3.848,3.8523,3.8546,3.8698,3.8684,3.8672,3.863,3.8735,3.8788,3.8809,3.8546,3.8545,3.8544,3.8544,0,0,3.7535,3.7691,3.7718,3.7778,3.7899,3.7983,3.8097,3.8216,3.8277,3.8372,3.8471,3.8625,3.8616,3.8687,3.8721,3.8798,3.8917,3.8777,3.8781,3.8802,3.9095,3.9104,3.9127,3.8924,3.8928,3.8932,3.9087,0,3.7668,3.7866,3.7914,3.8086,3.8187,3.8211,3.8311,3.8398,3.8452,3.8548,3.8609,3.8719,3.8697,3.8741,3.8818,3.8886,3.8977,3.8876,3.902,3.9025,3.8993,3.9154,3.9163,3.9305,3.9108,3.9111,3.9114,0,3.7847,3.7945,3.8126,3.8238,3.8282,3.837,3.8486,3.8577,3.8679,3.8713,3.8794,3.8822,3.8946,3.8898,3.9072,3.9002,3.9065,3.9108,3.9115,3.9131,3.9075,3.9176,3.9351,3.9372,3.9146,3.9144,3.9141,0,3.792,3.8097,3.8229,3.828,3.8413,3.8475,3.8534,3.8632,3.8703,3.8805,3.8852,3.8969,3.9033,3.9124,3.9184,3.9143,3.9355,3.9311,3.939,3.9389,3.9433,3.9429,3.9621,3.9471,3.9471,3.9471,3.947,0,3.8063,3.8174,3.8264,3.8345,3.8473,3.8528,3.8654,3.8714,3.8802,3.8899,3.8928,3.902,3.9092,3.9195,3.9243,3.9383,3.9411,3.9445,3.9457,3.9443,3.9439,3.9485,3.9477,3.9476,3.9475,3.9474,3.9473,0,3.8164,3.8228,3.8375,3.849,3.8522,3.8611,3.8711,3.8794,3.885,3.8973,3.9006,3.9095,3.9218,3.9287,3.9441,3.9474,3.963,3.9636,3.9595,3.96,3.9676,3.9669,3.9905,3.994,3.9765,3.9767,3.9768,0,3.8251,3.8337,3.8462,3.8528,3.8588,3.8694,3.8766,3.8827,3.8901,3.9027,3.9096,3.922,3.9323,3.9519,3.96,3.972,3.9731,3.9805,3.9749,3.9734,3.9735,3.9729,3.974,3.9815,3.9817,3.9818,3.9819,0,3.84,3.8429,3.853,3.8645,3.873,3.8823,3.8916,3.897,3.9047,3.913,3.9255,3.9335,3.9494,3.9619,3.9747,3.9812,3.983,3.9836,3.9862,3.9848,3.9822,3.984,3.9623,3.983,3.9829,3.9828,3.9828,3.9827,3.8499,3.8578,3.8679,3.8792,3.8869,3.8956,3.9041,3.9108,3.9213,3.9345,3.9376,3.951,3.9616,3.9788,3.9857,3.9966,3.9952,3.9987,3.9997,4.0005,4.0009,3.9804,3.9989,3.9989,3.9989,3.9988,3.9988,0,3.8651,3.8718,3.8822,3.8951,3.9042,3.905,3.9155,3.9231,3.9347,3.9443,3.9544,3.9691,3.9814,3.9906,4.0033,4.0102,4.0114,4.0133,4.0129,4.0145,4.0012,3.9979,4.0122,4.0122,4.0122,4.0122,4.0122,4.0122,3.874,3.8876,3.8918,3.9094,3.9161,3.929,3.935,3.9433,3.951,3.9672,3.9774,3.9832,3.9929,4.0064,4.0178,4.0203,4.0249,4.0268,4.0294,4.0168,4.0154,4.014,4.0109,4.0277,4.0277,4.0418,4.0419,4.042]},{"header":{"parameterUnit":"m.s-1","parameterCategory":1,"la1":30.2991,"la2":30.254,"lo1":-89.0895,"lo2":-89.0444,"dy":0.0017,"dx":0.0017,"nx":28,"ny":28,"refTime":"2025-04-06T09:00:00:Z","depth":0,"parameterNumber":3,"parameterNumberName":"V-component_of_WINDS"},"data":[0,0,0,0,0,0,0,0,0,0,0,0,0,0,0,0,0,0,0,0,0,0,0,0,0,0,0,0,0,0,0,0,0,0,0,0,0,0,0,0,0,0,0,0,0,0,0,0,0,0,0,0,0,0,0,0,0,0,-5.2925,-5.2923,0,-5.2793,-5.2792,-5.279,-5.2669,-5.2667,-5.2666,-5.2664,-5.252,-5.2518,-5.2515,0,0,0,0,0,0,0,0,0,0,0,0,0,-5.306,-5.3058,-5.2925,-5.2923,-5.2922,-5.2793,-5.2791,-5.279,-5.2669,-5.2667,-5.2665,-5.2664,-5.2521,-5.2518,-5.2515,0,0,0,0,0,0,0,0,0,0,0,0,0,-5.2972,-5.3058,-5.2925,-5.2846,-5.2838,-5.2794,-5.2791,-5.2789,-5.2669,-5.2667,-5.2665,-5.2663,-5.2522,-5.2518,-5.2515,-5.2535,0,0,-5.2503,-5.2502,0,0,0,0,0,0,0,0,-5.2977,-5.2967,-5.2859,-5.2851,-5.2842,-5.2745,-5.2786,-5.2704,-5.267,-5.2733,-5.2664,-5.2662,-5.2596,-5.2586,-5.2566,-5.2528,-5.2522,-5.2503,-5.2501,-5.2499,-5.2498,0,0,0,0,0,0,0,-5.2984,-5.2972,-5.2872,-5.2858,-5.2847,-5.2813,-5.2798,-5.277,-5.2678,-5.2727,-5.2718,-5.2705,-5.2591,-5.257,-5.2562,-5.252,-5.2503,-5.25,-5.2497,-5.2496,-5.2485,-5.2487,0,0,0,0,0,0,-5.3003,-5.2978,-5.2876,-5.2868,-5.2906,-5.2813,-5.2796,-5.2778,-5.2678,-5.2661,-5.2707,-5.27,-5.2577,-5.2566,-5.2556,-5.2569,-5.2499,-5.2495,-5.2493,-5.2483,-5.2486,-5.2488,0,0,0,0,0,0,-5.3007,-5.2995,-5.2882,-5.2921,-5.2904,-5.2813,-5.2794,-5.2777,-5.2756,-5.2663,-5.2645,-5.2703,-5.2575,-5.2561,-5.254,-5.2563,-5.2494,-5.249,-5.2481,-5.2484,-5.2487,-5.26,0,0,0,0,0,0,-5.3011,-5.2997,-5.3008,-5.2922,-5.2902,-5.2873,-5.2795,-5.2776,-5.2751,-5.274,-5.2654,-5.2638,-5.2572,-5.2547,-5.2537,-5.2557,-5.2488,-5.2479,-5.2482,-5.2486,-5.2593,-5.2606,-5.2617,0,0,0,0,0,-5.3016,-5.3044,-5.3009,-5.2997,-5.2913,-5.2875,-5.2863,-5.279,-5.2753,-5.276,-5.2699,-5.2641,-5.2562,-5.2546,-5.2533,-5.2552,-5.2477,-5.2481,-5.2486,-5.2588,-5.2604,-5.2617,0,0,0,0,0,0,-5.3132,-5.3031,-5.2991,-5.2993,-5.2943,-5.2854,-5.2861,-5.2809,-5.2767,-5.2758,-5.2666,-5.2647,-5.2635,-5.2591,-5.2575,-5.2563,-5.2511,-5.2513,-5.2593,-5.2607,-5.2619,-5.2628,-5.2484,0,0,0,0,0,-5.3158,-5.3139,-5.305,-5.3059,-5.3037,-5.2954,-5.2934,-5.2882,-5.2825,-5.2803,-5.2741,-5.2686,-5.2648,-5.2625,-5.2586,-5.2586,-5.2562,-5.2592,-5.2604,-5.2614,-5.2617,-5.2608,-5.2619,-5.2502,-5.2502,-5.2502,0,0,-5.3211,-5.3153,-5.3146,-5.3081,-5.3037,-5.3014,-5.2937,-5.2917,-5.2898,-5.2799,-5.2776,-5.2728,-5.2659,-5.2648,-5.264,-5.2611,-5.2643,-5.262,-5.2629,-5.2625,-5.2613,-5.2624,-5.2634,-5.2505,-5.2505,-5.2504,0,0,-5.3295,-5.3252,-5.3253,-5.321,-5.3144,-5.3088,-5.3089,-5.3007,-5.2972,-5.2947,-5.2871,-5.2844,-5.2783,-5.2736,-5.2704,-5.2766,-5.2708,-5.2755,-5.2816,-5.2808,-5.2817,-5.2825,-5.2842,-5.285,-5.2758,-5.2758,-5.2758,0,-5.3368,-5.3335,-5.3259,-5.3244,-5.3215,-5.3126,-5.3124,-5.3084,-5.3008,-5.2988,-5.2958,-5.2875,-5.2823,-5.2797,-5.2812,-5.279,-5.2783,-5.2764,-5.2823,-5.2829,-5.2835,-5.2851,-5.2858,-5.2764,-5.2764,-5.2763,-5.2762,0,-5.3426,-5.3404,-5.3412,-5.3343,-5.3315,-5.3306,-5.3224,-5.3204,-5.3153,-5.3099,-5.3071,-5.3005,-5.2948,-5.2938,-5.2888,-5.2903,-5.2886,-5.2841,-5.2786,-5.2854,-5.2867,-5.2872,-5.2773,-5.2771,-5.2769,-5.2767,0,0,-5.3581,-5.3469,-5.3473,-5.3438,-5.3358,-5.3337,-5.3321,-5.3268,-5.325,-5.3199,-5.318,-5.3128,-5.3084,-5.3048,-5.299,-5.2984,-5.3031,-5.2937,-5.2934,-5.2954,-5.3037,-5.3071,-5.308,-5.2992,-5.2993,-5.2994,-5.3042,0,-5.365,-5.3622,-5.3551,-5.3542,-5.3517,-5.343,-5.3416,-5.3362,-5.3309,-5.3277,-5.3216,-5.318,-5.3127,-5.3103,-5.3093,-5.3028,-5.3046,-5.3024,-5.2968,-5.2968,-5.2987,-5.3087,-5.3124,-5.3173,-5.3047,-5.3048,-5.3048,0,-5.3727,-5.3684,-5.3674,-5.3591,-5.3577,-5.3567,-5.351,-5.3482,-5.3416,-5.3377,-5.3336,-5.3272,-5.3244,-5.3195,-5.3152,-5.3138,-5.311,-5.3074,-5.3074,-5.3064,-5.3012,-5.3078,-5.3187,-5.3194,-5.3056,-5.3056,-5.3055,0,-5.3837,-5.3776,-5.3761,-5.3734,-5.3638,-5.3631,-5.359,-5.3523,-5.3494,-5.3442,-5.3421,-5.3367,-5.3336,-5.3292,-5.3212,-5.3184,-5.3176,-5.3121,-5.3138,-5.314,-5.314,-5.3141,-5.3244,-5.3127,-5.3127,-5.3126,-5.3126,0,-5.3921,-5.3917,-5.3809,-5.3799,-5.379,-5.3706,-5.3698,-5.3648,-5.3588,-5.3563,-5.3483,-5.346,-5.3358,-5.332,-5.3257,-5.3228,-5.3216,-5.3179,-5.3162,-5.3186,-5.319,-5.3165,-5.3159,-5.3128,-5.3128,-5.3127,-5.3127,0,-5.4042,-5.3971,-5.3947,-5.3858,-5.3835,-5.3832,-5.3753,-5.3737,-5.3679,-5.3648,-5.3635,-5.3542,-5.3494,-5.3411,-5.3338,-5.3295,-5.3277,-5.3249,-5.33,-5.329,-5.331,-5.3309,-5.34,-5.3405,-5.3288,-5.3289,-5.329,0,-5.41,-5.4095,-5.4005,-5.3985,-5.3947,-5.3915,-5.3885,-5.38,-5.3771,-5.3694,-5.3686,-5.3632,-5.3585,-5.3511,-5.3433,-5.3375,-5.3343,-5.3379,-5.3334,-5.3356,-5.3339,-5.334,-5.3336,-5.3389,-5.3391,-5.3392,-5.3394,0,-5.4208,-5.4172,-5.4135,-5.4084,-5.4051,-5.4006,-5.3956,-5.3942,-5.3844,-5.3815,-5.3767,-5.373,-5.3656,-5.3601,-5.3531,-5.3481,-5.3419,-5.3408,-5.3408,-5.3432,-5.346,-5.3441,-5.3326,-5.3407,-5.3405,-5.3404,-5.3404,-5.3403,-5.4296,-5.4287,-5.4222,-5.4181,-5.4135,-5.409,-5.407,-5.4009,-5.3969,-5.3905,-5.3855,-5.3809,-5.3736,-5.3637,-5.359,-5.3548,-5.352,-5.3522,-5.3522,-5.3523,-5.353,-5.3469,-5.3535,-5.3535,-5.3534,-5.3534,-5.3533,0,-5.4398,-5.4351,-5.4315,-5.4249,-5.4215,-5.4164,-5.4104,-5.4078,-5.4041,-5.3981,-5.3936,-5.3876,-5.3822,-5.3739,-5.3676,-5.3658,-5.3627,-5.3643,-5.3643,-5.3631,-5.3561,-5.3566,-5.3669,-5.3669,-5.3669,-5.3669,-5.3669,-5.3669,-5.4447,-5.4426,-5.4382,-5.4335,-5.4287,-5.4245,-5.4215,-5.4169,-5.4121,-5.406,-5.4016,-5.3964,-5.3892,-5.3822,-5.3767,-5.3743,-5.3722,-5.3747,-5.3714,-5.3649,-5.3637,-5.3625,-5.3629,-5.3744,-5.3744,-5.3787,-5.3788,-5.3788]}]]